TimeEST,TemperatureF,Dew PointF,Humidity,Sea Level PressureIn,VisibilityMPH,Wind Direction,Wind SpeedMPH,Gust SpeedMPH,PrecipitationIn,Events,Conditions,WindDirDegrees,DateUTC
12:54 AM,37.9,23.0,55,30.10,10.0,North,3.5,-,N/A,,Clear,350,2012-11-09 05:54:00
1:54 AM,37.0,24.1,59,30.11,10.0,NW,3.5,-,N/A,,Clear,320,2012-11-09 06:54:00
2:54 AM,37.0,25.0,62,30.13,10.0,NNW,3.5,-,N/A,,Clear,340,2012-11-09 07:54:00
3:54 AM,35.1,25.0,67,30.14,10.0,Calm,Calm,-,N/A,,Clear,0,2012-11-09 08:54:00
4:54 AM,34.0,26.1,73,30.15,10.0,Calm,Calm,-,N/A,,Clear,0,2012-11-09 09:54:00
5:54 AM,32.0,26.1,79,30.18,10.0,Calm,Calm,-,N/A,,Clear,0,2012-11-09 10:54:00
6:54 AM,33.1,26.1,75,30.20,10.0,WNW,3.5,-,N/A,,Clear,290,2012-11-09 11:54:00
7:54 AM,39.0,30.0,70,30.23,10.0,NW,4.6,-,N/A,,Clear,310,2012-11-09 12:54:00
8:54 AM,46.9,28.9,50,30.24,10.0,NW,4.6,-,N/A,,Clear,320,2012-11-09 13:54:00
9:54 AM,51.1,30.0,44,30.25,10.0,NW,11.5,-,N/A,,Clear,310,2012-11-09 14:54:00
10:54 AM,55.0,30.9,40,30.25,10.0,NW,8.1,-,N/A,,Clear,320,2012-11-09 15:54:00
11:54 AM,57.0,30.9,37,30.23,10.0,NW,12.7,20.7,N/A,,Clear,310,2012-11-09 16:54:00
12:54 PM,57.9,32.0,37,30.22,10.0,North,5.8,-,N/A,,Clear,350,2012-11-09 17:54:00
1:54 PM,60.1,32.0,35,30.20,10.0,NW,5.8,-,N/A,,Clear,320,2012-11-09 18:54:00
2:54 PM,60.1,30.9,33,30.20,10.0,NNW,9.2,-,N/A,,Clear,340,2012-11-09 19:54:00
3:54 PM,60.1,30.0,32,30.20,10.0,West,4.6,-,N/A,,Clear,270,2012-11-09 20:54:00
4:54 PM,59.0,30.0,33,30.20,10.0,Calm,Calm,-,N/A,,Clear,0,2012-11-09 21:54:00
5:54 PM,46.9,34.0,61,30.21,10.0,SE,3.5,-,N/A,,Clear,130,2012-11-09 22:54:00
6:54 PM,45.0,35.1,68,30.22,10.0,Calm,Calm,-,N/A,,Clear,0,2012-11-09 23:54:00
7:54 PM,44.1,35.1,71,30.24,10.0,Calm,Calm,-,N/A,,Clear,0,2012-11-10 00:54:00
8:54 PM,42.1,35.1,76,30.25,10.0,SSE,3.5,-,N/A,,Clear,160,2012-11-10 01:54:00
9:54 PM,42.8,33.8,70,30.24,10.0,Calm,Calm,-,N/A,,Clear,0,2012-11-10 02:54:00
10:54 PM,43.0,34.0,71,30.26,10.0,Calm,Calm,-,N/A,,Clear,0,2012-11-10 03:54:00
11:54 PM,41.0,34.0,76,30.25,10.0,Calm,Calm,-,N/A,,Clear,0,2012-11-10 04:54:00